Stations météo

Publicité
Lille, France (7015): Température de l'air & dewpoint: 11.08.2017 13:00:00 - 17.08.2017 13:00:00 (CEST)Lille, France (7015): Température de l'air 5cm: 11.08.2017 13:00:00 - 17.08.2017 13:00:00 (CEST)Lille, France (7015): Température de l'air -20cm & Température de l'air -100cm: 11.08.2017 13:00:00 - 17.08.2017 13:00:00 (CEST)Lille, France (7015): Vitesse du vent & gusts: 11.08.2017 13:00:00 - 17.08.2017 13:00:00 (CEST)Lille, France (7015): Direction du vent: 11.08.2017 13:00:00 - 17.08.2017 13:00:00 (CEST)Lille, France (7015): reduced air pressure: 11.08.2017 13:00:00 - 17.08.2017 13:00:00 (CEST)Lille, France (7015): visibility: 11.08.2017 13:00:00 - 17.08.2017 13:00:00 (CEST)Lille, France (7015): Ensoleillement: 11.08.2017 13:00:00 - 17.08.2017 13:00:00 (CEST)Lille, France (7015): Quantités de précipitations: 11.08.2017 13:00:00 - 17.08.2017 13:00:00 (CEST)
Date & Time tt [°C] td [°C] tt 5cm [°C] tt -20cm [°C] tt -100cm [°C] ff [km/h] ff [knt] fx [km/h] fx [knt] dd ppp [hPa] vv [km] sd [min] rr [mm]
17.08.2017 13:00:00 19,7 16,3 18,9 18,4 17,8 20 11 35 19 SSW 1014,6 46 0 0,0
17.08.2017 12:00:00 18,4 16,4 17,9 18,2 17,8 18 10 32 18 SSW 1014,8 29 0 0,0
17.08.2017 11:00:00 17,3 16,0 16,2 18,1 17,8 19 10 32 18 SSW 1015,0 20 0 0,8
17.08.2017 10:00:00 16,7 15,4 16,0 18,1 17,8 18 10 36 20 SSW 1014,8 4,2 0 2,2
17.08.2017 09:00:00 18,7 14,2 17,8 18,1 17,8 21 12 36 20 SSW 1014,2 49 0 0,0
17.08.2017 08:00:00 19,0 13,8 18,3 18,1 17,8 18 10 24 13 S 1014,2 57 0 0,0
17.08.2017 07:00:00 18,4 14,1 17,7 18,2 17,8 12 6 21 11 S 1014,4 48 0 0,0
17.08.2017 06:00:00 17,8 14,1 16,8 18,2 17,8 14 7 21 11 S 1014,7 48 0 0,0
17.08.2017 05:00:00 17,1 13,2 16,3 18,4 17,8 13 7 20 11 SSE 1015,1 57 0 0,0
17.08.2017 04:00:00 16,6 12,1 16,1 18,6 17,8 9 5 16 8 SE 1015,9 60 0 0,0
17.08.2017 03:00:00 16,8 11,9 16,0 18,8 17,8 8 4 16 9 SSE 1016,6 60 0 0,0
17.08.2017 02:00:00 16,1 11,5 15,4 19,0 17,8 8 5 13 7 SE 1017,0 60 0 0,0
17.08.2017 01:00:00 16,3 11,4 15,3 19,3 17,8 9 5 11 6 ESE 1017,6 60 0 0,0
17.08.2017 00:00:00 16,9 11,6 16,1 19,6 17,7 5 3 9 5 ESE 1018,1 60 0 0,0
16.08.2017 23:00:00 17,1 12,2 16,2 20,0 17,8 6 4 9 5 E 1018,4 42 0 0,0
16.08.2017 22:00:00 18,9 11,9 15,2 20,4 17,8 7 4 10 5 E 1019,1 53 0 0,0
16.08.2017 21:00:00 20,6 11,0 16,9 20,7 17,8 4 2 9 5 E 1019,3 60 20 0,0
16.08.2017 20:00:00 23,0 10,8 25,8 20,8 17,8 5 3 20 11 WNW 1019,4 58 60 0,0
16.08.2017 19:00:00 23,6 11,0 25,0 20,8 17,8 14 8 31 17 W 1019,8 46 53 0,0
16.08.2017 18:00:00 23,7 10,0 25,0 20,6 17,7 13 7 22 12 WSW 1020,0 31 60 0,0
16.08.2017 17:00:00 23,5 8,0 26,7 20,3 17,8 14 7 22 12 WSW 1020,0 47 58 0,0
16.08.2017 16:00:00 23,4 10,1 25,2 19,8 17,7 9 5 20 11 SSW 1020,1 39 34 0,0
16.08.2017 15:00:00 22,5 10,0 23,9 19,5 17,8 5 3 18 10 SW 1020,6 0,3 5 0,0
16.08.2017 14:00:00 22,3 10,4 23,8 18,9 17,7 9 5 21 11 WSW 1020,7 20 35 0,0
16.08.2017 13:00:00 20,3 12,8 23,4 18,4 17,7 10 5 17 9 SSW 1021,2 20 1 0,0
16.08.2017 12:00:00 19,7 13,4 21,7 17,9 17,7 9 5 14 8 S 1021,4 19 16 0,0
16.08.2017 11:00:00 19,0 14,0 21,2 17,4 17,7 5 3 13 7 SSW 1021,6 19 44 0,0
16.08.2017 10:00:00 17,0 14,5 17,2 17,1 17,7 5 3 9 5 SW 1021,4 18 55 0,0
16.08.2017 09:00:00 14,8 13,7 15,1 17,1 17,7 7 4 11 6 S 1021,5 13 60 0,0
16.08.2017 08:00:00 13,1 12,6 11,3 17,2 17,7 4 2 8 4 S 1021,3 11 56 0,0
16.08.2017 07:00:00 12,0 11,5 9,7 17,5 17,7 3 2 5 3 SSE 1020,9 0,2 0 0,0
16.08.2017 06:00:00 12,1 11,5 10,6 17,8 17,7 5 3 7 4 SSE 1020,5 0,5 0 0,2
16.08.2017 05:00:00 12,6 11,7 9,4 18,1 17,7 0 0 6 3 N 1020,5 0,6 0 0,0
16.08.2017 04:00:00 13,4 12,5 11,0 18,4 17,7 4 2 9 5 S 1020,2 1,2 0 0,0
16.08.2017 03:00:00 14,3 13,0 13,4 18,7 17,7 3 2 9 5 S 1020,0 15 0 0,0
16.08.2017 02:00:00 14,4 12,9 13,5 19,0 17,7 8 5 13 7 SW 1020,1 25 0 0,0
16.08.2017 01:00:00 15,0 12,5 13,5 19,3 17,7 8 4 12 6 SW 1020,2 39 0 0,0
16.08.2017 00:00:00 16,2 12,7 14,9 19,7 17,7 9 5 13 7 WSW 1020,0 46 0 0,0
15.08.2017 23:00:00 17,1 13,2 15,2 20,1 17,7 10 5 19 11 W 1019,4 51 0 0,0
15.08.2017 22:00:00 18,6 13,9 17,4 20,4 17,7 13 7 24 13 W 1018,8 51 0 0,0
15.08.2017 21:00:00 20,4 13,8 19,9 20,7 17,7 19 10 31 17 W 1017,7 56 25 0,0
15.08.2017 20:00:00 22,5 14,3 23,1 20,8 17,7 18 10 27 15 W 1017,1 39 53 0,0
15.08.2017 19:00:00 23,2 14,5 23,7 20,8 17,7 19 10 35 19 WNW 1016,6 33 32 0,0
15.08.2017 18:00:00 23,6 16,6 23,9 20,7 17,7 24 13 34 18 W 1015,9 39 16 0,0
15.08.2017 17:00:00 23,3 17,1 25,0 20,5 17,7 17 9 32 17 WNW 1015,4 20 18 0,0
15.08.2017 16:00:00 23,4 17,6 23,9 20,2 17,7 20 11 30 16 WNW 1015,0 46 6 0,0
15.08.2017 15:00:00 23,3 16,8 23,7 19,8 17,7 13 7 23 12 SW 1014,3 48 7 0,0
15.08.2017 14:00:00 22,6 16,8 23,3 19,5 17,7 11 6 20 11 SSW 1013,7 20 4 0,0
15.08.2017 13:00:00 21,5 16,2 23,0 18,9 17,7 8 4 14 7 SSW 1013,5 37 16 0,0
15.08.2017 12:00:00 21,5 16,7 23,1 18,3 17,7 5 3 19 11 SSE 1013,4 36 60 0,0
15.08.2017 11:00:00 18,7 16,7 18,2 18,1 17,7 11 6 20 11 E 1013,0 19 5 0,0
15.08.2017 10:00:00 17,4 16,4 16,3 18,0 17,7 14 8 21 11 E 1013,4 14 8 0,2
15.08.2017 09:00:00 16,6 15,8 15,7 18,0 17,7 6 4 24 13 NNE 1013,0 1,9 0 2,9
15.08.2017 08:00:00 16,5 14,9 14,8 18,1 17,7 12 7 48 26 NW 1014,6 4,9 0 4,2
15.08.2017 07:00:00 16,1 12,6 14,5 18,3 17,7 8 5 11 6 E 1011,7 29 0 0,0
15.08.2017 06:00:00 16,2 12,6 14,7 18,5 17,7 8 5 10 5 E 1012,5 32 0 0,0
15.08.2017 05:00:00 16,1 12,5 15,1 18,7 17,7 7 4 9 5 E 1013,3 33 0 0,0
15.08.2017 04:00:00 16,4 12,4 15,3 19,0 17,7 3 1 6 4 E 1014,3 34 0 0,0
15.08.2017 03:00:00 16,6 12,1 15,3 19,3 17,7 5 3 7 4 ESE 1014,5 34 0 0,0
15.08.2017 02:00:00 17,3 12,2 16,2 19,6 17,7 3 2 5 3 E 1014,8 18 0 0,0
15.08.2017 01:00:00 18,5 12,3 17,5 19,9 17,7 4 2 5 3 E 1015,2 43 0 0,0
15.08.2017 00:00:00 18,5 12,3 17,3 20,2 17,7 5 3 6 3 ESE 1015,3 37 0 0,0
14.08.2017 23:00:00 19,3 12,3 17,9 20,6 17,7 3 2 6 3 ESE 1015,5 41 0 0,0
14.08.2017 22:00:00 20,7 11,6 18,4 21,0 17,7 3 2 7 4 SE 1015,8 46 0 0,0
14.08.2017 21:00:00 22,8 11,5 21,6 21,3 17,7 7 4 13 7 S 1015,6 59 0 0,0
14.08.2017 20:00:00 24,3 11,3 24,2 21,5 17,7 10 5 19 10 S 1015,5 59 37 0,0
14.08.2017 19:00:00 25,6 10,2 27,1 21,6 17,7 10 5 20 11 S 1015,6 47 60 0,0
14.08.2017 18:00:00 25,7 10,3 25,8 21,4 17,7 12 6 22 12 SSW 1016,0 48 43 0,0
14.08.2017 17:00:00 25,7 9,9 31,0 20,9 17,7 10 6 23 13 SSE 1016,1 34 60 0,0
14.08.2017 16:00:00 25,8 10,8 26,7 20,3 17,7 11 6 25 14 S 1016,5 54 55 0,0
14.08.2017 15:00:00 25,0 10,5 26,7 19,6 17,7 13 7 23 12 SE 1017,1 46 49 0,0
14.08.2017 14:00:00 24,0 10,3 24,8 19,0 17,7 6 4 22 12 SSE 1017,7 42 44 0,0
14.08.2017 13:00:00 22,5 9,6 24,5 18,4 17,7 11 6 22 12 S 1018,4 53 33 0,0
14.08.2017 12:00:00 22,7 12,6 26,8 17,7 17,7 9 5 16 9 S 1018,9 26 60 0,0
14.08.2017 11:00:00 21,2 13,6 25,4 17,2 17,7 9 5 14 8 SSE 1019,1 17 60 0,0
14.08.2017 10:00:00 19,8 13,9 21,8 16,9 17,7 4 2 7 4 SSE 1019,1 13 60 0,0
14.08.2017 09:00:00 16,9 13,4 17,9 16,8 17,7 4 2 8 4 ESE 1019,5 11 60 0,0
14.08.2017 08:00:00 14,1 13,5 10,1 16,9 17,7 3 1 4 2 N 1019,5 7 56 0,0
14.08.2017 07:00:00 11,9 10,8 8,9 17,2 17,7 0 0 2 1 N 1019,6 0,1 0 0,0
14.08.2017 06:00:00 12,9 11,5 10,1 17,4 17,7 3 1 5 3 ESE 1019,6 1,1 0 0,0
14.08.2017 05:00:00 14,7 12,7 13,8 17,5 17,7 4 2 11 6 ENE 1019,8 6 0 0,0
14.08.2017 04:00:00 15,3 12,8 14,5 17,7 17,7 7 4 11 6 NE 1020,1 11 0 0,0
14.08.2017 03:00:00 16,4 12,9 16,1 17,8 17,7 8 4 13 7 NE 1020,4 17 0 0,0
14.08.2017 02:00:00 16,7 12,4 16,3 18,0 17,7 10 5 16 9 NE 1020,9 29 0 0,0
14.08.2017 01:00:00 16,9 11,2 16,1 18,2 17,8 9 5 13 7 NE 1021,3 40 0 0,0
14.08.2017 00:00:00 16,5 11,4 15,0 18,3 17,7 7 4 12 7 NE 1021,7 53 0 0,0
13.08.2017 23:00:00 16,5 11,0 15,3 18,7 17,7 8 5 16 8 N 1021,8 58 0 0,0
13.08.2017 22:00:00 17,3 10,9 16,3 19,0 17,7 12 6 27 15 N 1021,8 59 0 0,0
13.08.2017 21:00:00 18,1 11,6 17,3 19,2 17,8 15 8 28 15 N 1021,3 54 4 0,0
13.08.2017 20:00:00 20,0 12,0 21,1 19,3 17,7 16 9 24 13 N 1020,8 55 33 0,0
13.08.2017 19:00:00 21,4 12,8 24,2 19,2 17,7 15 8 22 12 N 1020,5 46 43 0,0
13.08.2017 18:00:00 22,2 12,4 23,4 18,9 17,7 13 7 23 13 NNE 1020,6 50 49 0,0
13.08.2017 17:00:00 21,9 13,0 22,4 18,8 17,7 12 6 18 10 N 1020,9 27 11 0,0
13.08.2017 16:00:00 20,5 11,9 20,5 18,8 17,7 6 3 13 7 NE 1021,0 57 0 0,0
13.08.2017 15:00:00 20,0 12,5 21,0 18,7 17,8 6 3 19 10 NNE 1021,0 59 0 0,0
13.08.2017 14:00:00 20,2 12,9 21,8 18,5 17,7 12 6 25 13 N 1021,0 46 1 0,0
13.08.2017 13:00:00 20,3 12,5 22,3 18,0 17,7 4 2 16 8 NE 1021,0 52 26 0,0
13.08.2017 12:00:00 19,9 13,4 21,4 17,4 17,7 5 3 11 6 WNW 1020,9 48 24 0,0
13.08.2017 11:00:00 20,9 14,3 24,2 16,8 17,7 3 1 11 6 SSW 1020,8 20 58 0,0
13.08.2017 10:00:00 17,7 14,4 20,8 16,4 17,7 2 1 9 5 NE 1020,5 19 60 0,0
13.08.2017 09:00:00 15,0 13,9 17,4 16,3 17,8 8 4 12 6 W 1020,2 19 60 0,0
13.08.2017 08:00:00 13,4 13,1 9,9 16,4 17,7 0 0 3 1 N 1019,6 5 60 0,0
13.08.2017 07:00:00 11,3 10,8 7,7 16,7 17,8 3 1 7 4 SW 1019,3 0,2 0 0,2
13.08.2017 06:00:00 11,2 10,4 7,7 17,0 17,8 5 3 9 5 W 1019,1 0,3 0 0,0
13.08.2017 05:00:00 12,0 11,1 8,7 17,2 17,8 7 4 8 5 W 1019,1 3,4 0 0,0
13.08.2017 04:00:00 12,7 11,9 11,4 17,5 17,8 8 4 10 5 WSW 1019,0 7 0 0,0
13.08.2017 03:00:00 13,2 12,1 12,5 17,8 17,8 9 5 11 6 WSW 1018,8 11 0 0,0
13.08.2017 02:00:00 13,8 12,5 12,7 18,0 17,8 9 5 11 6 WSW 1018,9 17 0 0,0
13.08.2017 01:00:00 14,3 12,7 13,6 18,3 17,8 8 4 14 8 WSW 1018,8 26 0 0,0
13.08.2017 00:00:00 15,3 12,6 14,6 18,5 17,7 11 6 19 10 WSW 1018,7 40 0 0,0
12.08.2017 23:00:00 16,3 12,8 15,5 18,8 17,8 15 8 24 13 WSW 1018,4 56 0 0,0
12.08.2017 22:00:00 16,7 13,0 16,0 19,1 17,8 13 7 24 13 W 1018,1 57 0 0,0
12.08.2017 21:00:00 18,2 13,1 17,9 19,3 17,8 20 11 38 21 W 1017,5 59 10 0,0
12.08.2017 20:00:00 19,6 14,0 19,9 19,3 17,8 21 12 35 19 W 1016,9 34 2 0,0
12.08.2017 19:00:00 20,2 15,4 18,7 19,2 17,8 22 12 34 18 WSW 1016,6 51 22 0,0
12.08.2017 18:00:00 18,9 16,7 18,0 19,2 17,8 15 8 23 12 W 1016,7 43 0 0,0
12.08.2017 17:00:00 19,0 16,6 18,8 19,1 17,8 19 10 31 17 W 1016,7 12 0 0,0
12.08.2017 16:00:00 18,9 17,2 18,2 18,9 17,8 20 11 37 20 WSW 1016,6 8 0 0,4
12.08.2017 15:00:00 20,7 14,8 18,6 18,7 17,8 23 13 36 19 W 1016,4 38 2 0,0
12.08.2017 14:00:00 19,5 16,0 18,7 18,3 17,8 21 12 32 18 WSW 1016,4 15 0 0,0
12.08.2017 13:00:00 18,6 16,4 17,9 18,0 17,8 21 11 29 16 WSW 1016,2 13 2 0,0
12.08.2017 12:00:00 17,2 16,4 17,0 17,7 17,8 18 10 33 18 SW 1016,2 9 0 0,6
12.08.2017 11:00:00 17,0 16,0 16,4 17,5 17,8 20 11 32 18 SW 1015,7 7 0 0,0
12.08.2017 10:00:00 16,2 15,6 15,6 17,4 17,8 18 10 31 17 SW 1015,7 5 0 0,2
12.08.2017 09:00:00 15,3 14,7 14,8 17,4 17,8 16 8 25 13 SSW 1015,7 3,6 0 0,4
12.08.2017 08:00:00 15,0 14,4 14,6 17,4 17,8 15 8 24 13 SSW 1015,5 4,4 0 0,2
12.08.2017 07:00:00 14,8 14,0 14,3 17,5 17,8 14 8 26 14 SSW 1015,4 6 0 0,2
12.08.2017 06:00:00 14,6 13,8 14,4 17,5 17,8 16 8 26 14 SSW 1015,5 10 0 0,6
12.08.2017 05:00:00 15,0 13,9 14,5 17,6 17,8 15 8 20 11 SSW 1015,9 9 0 0,0
12.08.2017 04:00:00 14,7 13,2 13,9 17,7 17,8 13 7 17 9 S 1016,5 17 0 0,0
12.08.2017 03:00:00 14,3 12,7 13,8 17,8 17,8 11 6 16 8 S 1017,0 16 0 0,0
12.08.2017 02:00:00 14,3 11,8 13,4 18,0 17,8 9 5 18 10 SSW 1017,1 19 0 0,0
12.08.2017 01:00:00 13,8 11,1 13,4 18,3 17,8 15 8 25 13 WSW 1017,4 30 0 0,0
12.08.2017 00:00:00 14,2 10,8 13,6 18,7 17,8 16 9 24 13 WSW 1017,6 35 0 0,0
11.08.2017 23:00:00 14,7 10,3 14,2 19,1 17,8 16 8 29 15 SW 1018,1 41 0 0,0
11.08.2017 22:00:00 15,4 10,2 14,8 19,5 17,8 16 8 37 20 W 1018,4 51 0 0,0
11.08.2017 21:00:00 17,1 8,8 16,6 19,9 17,8 27 15 41 22 W 1018,7 55 14 0,0
11.08.2017 20:00:00 19,5 9,9 20,0 20,1 17,8 29 16 40 22 W 1018,3 31 36 0,0
11.08.2017 19:00:00 21,5 9,4 22,3 20,1 17,8 25 14 37 20 W 1018,0 48 49 0,0
11.08.2017 18:00:00 22,3 10,1 23,1 20,0 17,8 24 13 38 20 W 1018,0 20 45 0,0
11.08.2017 17:00:00 22,9 10,3 23,4 19,8 17,8 22 12 36 19 W 1018,0 32 51 0,0
11.08.2017 16:00:00 22,6 10,4 23,1 19,4 17,8 21 11 34 19 WNW 1018,3 20 43 0,0
11.08.2017 15:00:00 21,7 11,1 24,1 18,8 17,8 16 9 29 16 WNW 1018,8 19 52 0,0
11.08.2017 14:00:00 19,8 11,8 20,6 18,4 17,8 12 7 31 17 NW 1019,4 20 21 0,0
11.08.2017 13:00:00 19,7 13,2 20,8 17,9 17,8 12 6 26 14 W 1019,2 19 29 0,0

tt = Température de l'air
td = dewpoint
tt 5cm = Température de l'air 5cm
tt -20cm = Température de l'air -20cm
tt -100cm = Température de l'air -100cm
ff = Vitesse du vent
fx = gusts
dd = Direction du vent
ppp = reduced air pressure
vv = visibility
sd = Ensoleillement
rr = Quantités de précipitations

stations d'obs. à proximité